sat.trackr.live / text

‹ back to catalog

COSMOS 2561

NORAD 54109 · 2022-137A

PAYLOAD ACTIVE UNKNOWN

§ Identity

Operator
Country
CIS
Launch date
2022-10-21
Launch site
PLMSC
Launch vehicle
Mass (kg)
RCS (m²)

External: N2YO · Heavens-Above · Gunter

§ Orbital elements

Epoch: 2026-05-25T04:47:31.353216Z

Period
92.84 min
Inclination
96.9206°
Eccentricity
0.0011963
Mean motion
15.51038474 rev/d
Perigee alt
405.6 km
Apogee alt
421.8 km
Semi-major
6,791.8 km
B*
2.1405e-4
RAAN
205.0678°
Arg perigee
108.5143°
Mean anomaly
251.7411°
Rev number
20,278

§ Raw data

COSMOS 25611 54109U 22137A   26145.19966844  .00012393  00000+0  21405-3 0  99912 54109  96.9206 205.0678 0011963 108.5143 251.7411 15.51038474202781

JSON: /api/v1/satellites/54109 · /tle

For live sub-satellite position, see the globe view (requires WebGL).

§ Visibility from observer

Set your observer location to see the next 7 days of passes ≥ 10°. The values pass through the URL so the page stays shareable.

No JS? Fill the form by hand. The geolocation button needs JavaScript.

§ Radio — SatNOGS DB

ModeDescriptionDownlinkUplink
FM S-band telemetry 2.280 GHz

1 transmitter · refreshed weekly from db.satnogs.org